Location: Unspecified
(0.0000°N, 0.0000°E)
Time: 11:59:46
(UTC+00:00)

Vanguard 1 - Pass Details

Date: 09 February 2018
Orbit: 650 x 3833 km, 34.3° (Epoch: 21 May)

Event Time Altitude Azimuth Distance (km) Brightness Sun altitude
Exits shadow 03:09:46 66° 196° (SSW) 2,543 11.8 -44.2°
Drops below altitude 10° 03:28:01 10° 134° (SE) 6,483 14.8 -39.9°
Sets 03:33:52 0° 131° (SE) 7,780 15.4 -38.5°
